• MPC Preparation (Info)

  • MPEC 2013-V27 : 2013 VP4

    The following Minor Planet Electronic Circular may be linked-to from your own Web pages, but must not otherwise be redistributed electronically.

    A form allowing access to any MPEC is at the bottom of this page.


    Read MPEC 2013-V26 Read MPEC 2013-V28


    M.P.E.C. 2013-V27                                Issued 2013 Nov. 5, 18:56 UT
    
         The Minor Planet Electronic Circulars contain information on unusual
             minor planets and routine data on comets.  They are published
       on behalf of Commission 20 of the International Astronomical Union by the
              Minor Planet Center, Smithsonian Astrophysical Observatory,
                              Cambridge, MA 02138, U.S.A.
    
                 Prepared using the Tamkin Foundation Computer Network
    
                                  MPC@CFA.HARVARD.EDU
                URL https://www.minorplanetcenter.net/    ISSN 1523-6714
    
                                       2013 VP4
    
    Observations:
         K13V04P* C2013 11 04.22644 02 38 22.68 +10 11 21.7          20.9 VqEV027G96
         K13V04P  C2013 11 04.23112 02 38 23.17 +10 11 34.5          20.4 VqEV027G96
         K13V04P  C2013 11 04.23584 02 38 23.65 +10 11 47.6          20.9 VqEV027G96
         K13V04P  C2013 11 04.24054 02 38 24.12 +10 12 00.0          21.0 VqEV027G96
         K13V04P  C2013 11 04.28050 02 38 28.15 +10 13 48.3                qEV027G96
         K13V04P  C2013 11 04.28101 02 38 28.23 +10 13 48.6          20.9 VqEV027G96
         K13V04P  C2013 11 04.28152 02 38 28.30 +10 13 51.3                qEV027G96
         K13V04P  C2013 11 04.28204 02 38 28.29 +10 13 52.7          21.2 VqEV027G96
         K13V04P  C2013 11 04.28255 02 38 28.38 +10 13 53.9          20.7 VqEV027G96
         K13V04P |C2013 11 05.24311 02 40 19.50 +10 56 19.1          21.1 VuEV027807
         K13V04P |C2013 11 05.24856 02 40 20.01 +10 56 32.2          20.8 VuEV027807
         K13V04P |C2013 11 05.25402 02 40 20.53 +10 56 46.2          20.9 VuEV027807
    
    Observer details:
    807 Cerro Tololo.  Observers T. Linder, R. Holmes.  Measurers T. Linder,
        R. Holmes, K. Baker.  0.41-m f/11 Ritchey-Chretien + CCD.
    G96 Mt. Lemmon Survey.  Observer R. E. Hill.  Measurers A. Boattini,
        E. J. Christensen, A. R. Gibbs, A. D. Grauer, R. E. Hill, J. A. Johnson,
        R. A. Kowalski, S. M. Larson, F. C. Shelly.  1.5-m reflector + CCD.
    
    Orbital elements:
    2013 VP4                                                 Earth MOID = 0.0408 AU
    Epoch 2013 Nov. 4.0 TT = JDT 2456600.5                  MPC
    M  10.54420              (2000.0)            P               Q
    n   0.25502126     Peri.  300.49411     +0.99446791     +0.09595987
    a   2.4627394      Node    54.03228     -0.06877550     +0.90226210
    e   0.5919129      Incl.    3.02590     -0.07939463     +0.42037460
    P   3.86           H   24.3           G   0.15           U   9
    Residuals in seconds of arc
    131104 G96  0.0   0.1-    131104 G96  0.3-  0.1+    131104 G96  0.1+  0.2+
    131104 G96  0.1+  0.0     131104 G96  0.2+  1.0-    131105 807  0.0   0.1+
    131104 G96  0.0   0.2+    131104 G96  0.4+  0.4+    131105 807  0.0   0.3-
    131104 G96  0.1-  0.1-    131104 G96  0.5-  0.4+    131105 807  0.1+  0.2+
    
    Ephemeris:
    2013 VP4                 a,e,i = 2.46, 0.59, 3                   q = 1.0050
    Date    TT    R. A. (2000) Decl.     Delta      r     Elong.  Phase     V
    2013 10 06    20 50 00.1 -52 54 40   0.06770 1.0180   103.8    72.5    21.0
    ...
    2013 10 21    01 39 08.7 -10 49 53   0.07623 1.0668   158.5    20.0    19.8
    ...
    2013 10 29    02 21 46.3 +04 06 42   0.1133  1.1053   170.5     8.5    20.4
    ...
    2013 11 04    02 37 53.2 +10 01 26   0.1475  1.1387   174.7     4.6    20.8
    2013 11 05    02 39 52.9 +10 45 28   0.1536  1.1447   175.2     4.2    20.9
    2013 11 06    02 41 43.9 +11 26 16   0.1598  1.1507   175.5     3.9    21.0
    ...
    2013 11 12    02 50 33.4 +14 37 53   0.1993  1.1884   174.8     4.4    21.6
    ...
    2013 11 20    02 58 41.2 +17 20 34   0.2581  1.2428   169.6     8.2    22.4
    ...
    2013 12 05    03 10 19.8 +20 08 04   0.3889  1.3535   157.7    16.0    23.8
    
    A. U. Tomatic                (C) Copyright 2013 MPC           M.P.E.C. 2013-V27
    

    Read MPEC 2013-V26 Read MPEC 2013-V28


    MPEC number:

    Enter an MPEC number in one of the following forms:

    • 1997-B01 (the full form)
    • J97B01 (the packed version of the full form)
    • B01 (the abbreviated form)